QPF
0.00 0.00 0.00 0.00 0.00 0.00 0.00 0.00 0.00 0.00 0.00 0.00 0.00 0.00 0.00 0.00 0.00 0.00 0.00 0.00 0.00 0.00 0.00 0.00 0.00 0.00 0.00 0.00 0.00 0.00 0.00 0.00 0.00 0.00 0.00 0.00 0.00 0.00 0.00 0.00 0.00 0.00 0.00
0.00 0.00 0.00 0.00 0.00 0.00 0.00 0.00 0.00 0.00 0.00 0.00 0.00 0.00 0.00 0.00 0.00 0.00 0.00 0.00 0.00 0.00 0.00 0.00 0.00 0.00 0.00 0.00 0.00 0.00 0.00 0.00 0.00 0.00 0.00 0.00 0.00 0.00 0.00 0.00 0.00 0.00 0.00
0.00 0.00 0.00 0.00 0.00 0.00 0.00 0.00 0.00 0.00 0.00 0.00 0.00 0.00 0.00 0.00 0.00 0.00 0.00 0.00 0.00 0.00 0.00 0.00 0.00 0.00 0.00 0.00 0.00 0.00 0.00 0.00 0.00 0.00 0.00 0.00 0.00 0.00 0.00 0.00 0.00 0.00 0.00
0.00 0.00 0.00 0.00 0.00 0.00 0.00 0.00 0.00 0.00 0.00 0.00 0.00 0.00 0.00 0.00 0.00 0.00 0.00 0.00 0.00 0.00 0.00 0.00 0.00 0.00 0.00 0.00 0.00 0.00 0.00 0.00 0.00 0.00 0.00 0.00 0.00 0.00 0.00 0.00 0.00 0.00 0.00
0.00 0.00 0.00 0.00 0.00 0.00 0.00 0.00 0.00 0.00 0.00 0.00 0.00 0.00 0.00 0.00 0.00 0.00 0.00 0.00 0.00 0.00 0.00 0.00 0.00 0.00 0.00 0.00 0.00 0.00 0.00 0.00 0.00 0.00 0.00 0.00 0.00 0.00 0.00 0.00 0.00 0.00 0.00
0.00 0.00 0.00 0.00 0.00 0.00 0.00 0.00 0.00 0.00 0.00 0.00 0.00 0.00 0.00 0.00 0.00 0.00 0.00 0.00 0.00 0.00 0.00 0.00 0.00 0.00 0.00 0.00 0.00 0.00 0.00 0.00 0.00 0.00 0.00 0.00 0.00 0.00 0.00 0.00 0.00 0.00 0.00
0.00 0.00 0.00 0.00 0.00 0.00 0.00 0.00 0.00 0.00 0.00 0.00 0.00 0.00 0.00 0.00 0.00 0.00 0.00 0.00 0.00 0.00 0.00 0.00 0.00 0.00 0.00 0.00 0.00 0.00 0.00 0.00 0.00 0.00 0.00 0.00 0.00 0.00 0.00 0.00 0.00 0.00 0.00
0.00 0.00 0.00 0.00 0.00 0.00 0.00 0.00 0.00 0.00 0.00 0.00 0.00 0.00 0.00 0.00 0.00 0.00 0.00 0.00 0.00 0.00 0.00 0.00 0.00 0.00 0.00 0.00 0.00 0.00 0.00 0.00 0.00 0.00 0.00 0.00 0.00 0.00 0.00 0.00 0.00 0.01 0.00
0.00 0.00 0.00 0.00 0.00 0.00 0.00 0.00 0.00 0.00 0.00 0.00 0.00 0.00 0.00 0.00 0.00 0.00 0.00 0.00 0.00 0.00 0.00 0.00 0.00 0.00 0.00 0.00 0.00 0.00 0.00 0.00 0.00 0.00 0.00 0.00 0.00 0.00 0.00 0.00 0.01 0.01 0.01
0.00 0.00 0.00 0.00 0.00 0.00 0.00 0.00 0.00 0.00 0.00 0.00 0.00 0.00 0.00 0.00 0.00 0.00 0.00 0.00 0.00 0.00 0.00 0.00 0.00 0.00 0.00 0.00 0.00 0.00 0.00 0.00 0.00 0.00 0.00 0.00 0.00 0.00 0.00 0.00 0.00 0.00 0.00
0.00 0.00 0.00 0.00 0.00 0.00 0.00 0.00 0.00 0.00 0.00 0.00 0.00 0.00 0.00 0.00 0.00 0.00 0.00 0.00 0.00 0.00 0.00 0.00 0.00 0.00 0.00 0.00 0.00 0.00 0.00 0.00 0.00 0.00 0.00 0.00 0.00 0.00 0.00 0.00 0.00 0.00 0.00
0.00 0.00 0.00 0.00 0.00 0.00 0.00 0.00 0.00 0.00 0.00 0.00 0.00 0.00 0.00 0.00 0.00 0.00 0.00 0.00 0.00 0.00 0.00 0.00 0.00 0.00 0.00 0.00 0.00 0.00 0.00 0.00 0.00 0.00 0.00 0.00 0.00 0.00 0.00 0.00 0.00 0.00 0.00
0.00 0.00 0.00 0.00 0.00 0.00 0.00 0.00 0.00 0.00 0.00 0.00 0.00 0.00 0.00 0.00 0.00 0.00 0.00 0.00 0.00 0.00 0.00 0.00 0.00 0.00 0.00 0.00 0.00 0.00 0.00 0.00 0.00 0.00 0.00 0.00 0.00 0.00 0.00 0.00 0.00 0.00 0.00
0.00 0.00 0.00 0.00 0.00 0.00 0.00 0.00 0.00 0.00 0.00 0.00 0.00 0.00 0.00 0.00 0.00 0.00 0.00 0.00 0.00 0.00 0.00 0.00 0.00 0.00 0.00 0.00 0.00 0.00 0.00 0.00 0.00 0.00 0.00 0.00 0.00 0.00 0.00 0.00 0.00 0.01 0.01
0.00 0.00 0.00 0.00 0.00 0.00 0.00 0.00 0.00 0.00 0.00 0.00 0.00 0.00 0.00 0.00 0.00 0.00 0.00 0.00 0.00 0.00 0.00 0.00 0.00 0.00 0.00 0.00 0.00 0.00 0.00 0.00 0.00 0.00 0.00 0.00 0.00 0.00 0.00 0.01 0.02 0.02 0.01
0.00 0.00 0.00 0.00 0.00 0.00 0.00 0.00 0.00 0.00 0.00 0.00 0.00 0.00 0.00 0.00 0.00 0.00 0.00 0.00 0.00 0.00 0.00 0.00 0.00 0.00 0.00 0.00 0.00 0.00 0.00 0.00 0.00 0.00 0.00 0.00 0.00 0.00 0.00 0.01 0.01 0.02 0.04
0.00 0.00 0.00 0.00 0.00 0.00 0.00 0.00 0.00 0.00 0.00 0.00 0.00 0.00 0.00 0.00 0.00 0.00 0.00 0.00 0.00 0.00 0.00 0.00 0.00 0.00 0.00 0.00 0.00 0.00 0.00 0.00 0.00 0.00 0.00 0.00 0.00 0.00 0.01 0.00 0.01 0.02 0.02
0.00 0.00 0.00 0.00 0.00 0.00 0.00 0.00 0.00 0.00 0.00 0.00 0.00 0.00 0.00 0.00 0.00 0.00 0.00 0.00 0.00 0.00 0.00 0.00 0.00 0.00 0.00 0.00 0.00 0.00 0.00 0.00 0.00 0.00 0.00 0.00 0.00 0.01 0.00 0.01 0.02 0.00 0.00
0.00 0.00 0.00 0.00 0.00 0.00 0.00 0.00 0.00 0.00 0.00 0.00 0.00 0.00 0.00 0.00 0.00 0.00 0.00 0.00 0.00 0.00 0.00 0.00 0.00 0.00 0.00 0.00 0.00 0.00 0.00 0.00 0.00 0.00 0.00 0.01 0.00 0.00 0.02 0.03 0.01 0.00 0.00
0.00 0.00 0.00 0.00 0.00 0.00 0.00 0.00 0.00 0.00 0.00 0.00 0.00 0.00 0.00 0.00 0.00 0.00 0.00 0.00 0.00 0.00 0.00 0.00 0.00 0.00 0.00 0.00 0.00 0.00 0.00 0.00 0.00 0.00 0.01 0.00 0.00 0.01 0.05 0.01 0.00 0.00 0.00
0.00 0.00 0.00 0.00 0.00 0.00 0.00 0.00 0.00 0.00 0.00 0.00 0.00 0.00 0.00 0.00 0.00 0.00 0.00 0.00 0.00 0.00 0.00 0.00 0.00 0.00 0.00 0.00 0.00 0.00 0.00 0.00 0.01 0.02 0.01 0.00 0.01 0.03 0.01 0.00 0.00 0.00 0.00
0.00 0.00 0.00 0.00 0.00 0.00 0.00 0.00 0.00 0.00 0.00 0.00 0.00 0.00 0.00 0.00 0.00 0.00 0.00 0.00 0.00 0.00 0.00 0.00 0.00 0.00 0.00 0.00 0.00 0.00 0.00 0.00 0.01 0.01 0.01 0.02 0.01 0.00 0.00 0.00 0.00 0.00 0.00
0.00 0.00 0.00 0.00 0.00 0.00 0.00 0.00 0.00 0.00 0.00 0.00 0.00 0.00 0.00 0.00 0.00 0.00 0.00 0.00 0.00 0.00 0.00 0.00 0.00 0.00 0.00 0.00 0.00 0.00 0.01 0.01 0.01 0.01 0.02 0.01 0.00 0.00 0.00 0.00 0.00 0.00 0.00
0.00 0.00 0.00 0.00 0.00 0.00 0.00 0.00 0.00 0.00 0.00 0.00 0.00 0.00 0.00 0.00 0.00 0.00 0.00 0.00 0.00 0.00 0.00 0.00 0.00 0.00 0.00 0.00 0.00 0.00 0.01 0.00 0.01 0.02 0.00 0.00 0.00 0.00 0.00 0.00 0.00 0.00 0.00
0.00 0.00 0.00 0.00 0.00 0.00 0.00 0.00 0.00 0.00 0.00 0.00 0.00 0.00 0.00 0.00 0.00 0.00 0.00 0.00 0.00 0.00 0.00 0.00 0.00 0.00 0.00 0.00 0.00 0.01 0.00 0.01 0.02 0.00 0.00 0.00 0.00 0.00 0.00 0.00 0.00 0.00 0.00
0.00 0.00 0.00 0.00 0.00 0.00 0.00 0.00 0.00 0.00 0.00 0.00 0.00 0.00 0.00 0.00 0.00 0.00 0.00 0.00 0.00 0.00 0.00 0.00 0.00 0.00 0.00 0.00 0.00 0.00 0.01 0.01 0.00 0.00 0.00 0.00 0.00 0.01 0.00 0.00 0.00 0.00 0.00
MSLP
1010.95 1011.22 1011.26 1011.08 1011.07 1010.90 1010.67 1010.61 1010.65 1010.66 1010.56 1010.63 1010.90 1011.57 1012.21 1012.59 1012.99 1013.31 1013.39 1013.41 1013.39 1013.21 1013.12 1012.93 1012.74 1012.57 1012.31 1012.20 1011.97 1011.57 1011.02 1010.22 1009.76 1009.05 1008.09 1007.31 1006.12 1005.28 1005.04 1005.04 1004.56 1003.79 1003.18
1010.92 1011.38 1011.48 1011.51 1011.57 1011.49 1011.35 1011.31 1011.38 1011.39 1011.44 1011.69 1012.03 1012.51 1012.83 1013.27 1013.57 1013.90 1014.09 1014.01 1013.98 1013.92 1013.70 1013.63 1013.42 1013.25 1012.90 1012.63 1012.37 1011.93 1011.42 1010.80 1010.39 1009.58 1008.66 1006.70 1006.07 1005.40 1005.67 1005.54 1004.31 1003.56 1003.06
1010.80 1011.37 1011.73 1011.95 1012.10 1012.21 1012.32 1012.00 1012.00 1012.32 1012.43 1012.55 1013.05 1013.39 1013.60 1013.71 1013.91 1014.27 1014.43 1014.66 1014.59 1014.62 1014.51 1014.28 1013.92 1013.65 1013.36 1013.07 1012.81 1012.44 1012.02 1011.32 1010.78 1010.44 1009.79 1007.86 1006.90 1006.43 1006.27 1005.43 1004.45 1003.66 1003.37
1010.95 1011.58 1011.97 1012.31 1012.68 1013.04 1012.95 1012.75 1012.92 1013.05 1013.26 1013.35 1013.38 1013.52 1013.83 1014.25 1014.75 1014.83 1015.11 1015.08 1015.19 1015.16 1015.01 1014.75 1014.49 1014.18 1013.87 1013.59 1013.25 1012.88 1012.58 1012.06 1011.26 1010.78 1010.21 1009.77 1008.86 1007.31 1005.29 1005.20 1005.10 1004.31 1003.77
1010.99 1011.87 1012.35 1012.85 1013.28 1013.51 1013.54 1013.59 1013.66 1013.77 1014.05 1014.21 1014.17 1014.20 1014.52 1014.98 1015.39 1015.42 1015.30 1015.35 1015.39 1015.52 1015.51 1015.20 1014.89 1014.58 1014.27 1014.03 1013.76 1013.35 1012.88 1012.43 1011.87 1011.19 1010.62 1009.94 1009.10 1008.48 1007.51 1004.67 1004.80 1004.70 1004.16
1011.30 1012.07 1012.68 1013.08 1013.54 1013.97 1014.07 1014.12 1014.25 1014.60 1014.78 1014.85 1015.01 1015.13 1015.37 1015.55 1015.67 1015.76 1015.57 1015.55 1015.57 1015.63 1015.74 1015.45 1015.08 1014.90 1014.73 1014.45 1014.06 1013.62 1013.11 1012.64 1012.20 1011.66 1011.00 1010.24 1009.55 1008.65 1007.89 1006.43 1004.92 1004.13 1003.53
1011.41 1012.10 1012.58 1013.09 1013.65 1014.15 1014.52 1014.66 1014.88 1015.08 1015.38 1015.57 1015.74 1015.90 1016.08 1016.17 1016.17 1016.05 1015.95 1015.85 1015.73 1015.83 1015.87 1015.70 1015.44 1015.24 1015.02 1014.67 1014.21 1013.73 1013.26 1012.78 1012.45 1011.89 1011.13 1010.57 1009.91 1009.18 1008.41 1007.19 1005.34 1004.08 1003.18
1011.20 1011.90 1012.45 1013.15 1013.86 1014.42 1014.80 1015.10 1015.39 1015.58 1015.84 1016.13 1016.25 1016.34 1016.53 1016.61 1016.60 1016.64 1016.57 1016.44 1016.41 1016.37 1016.37 1016.11 1015.78 1015.42 1015.05 1014.63 1014.23 1013.76 1013.25 1012.75 1012.29 1011.84 1011.30 1010.54 1009.93 1009.22 1008.48 1007.49 1006.39 1004.46 1003.35
1011.07 1011.91 1012.64 1013.31 1014.02 1014.61 1015.19 1015.56 1015.83 1016.16 1016.44 1016.49 1016.66 1016.73 1016.87 1016.93 1017.01 1017.06 1016.96 1016.95 1016.89 1016.75 1016.42 1016.10 1015.72 1015.35 1015.02 1014.71 1014.29 1013.63 1013.14 1012.74 1012.14 1011.72 1011.03 1010.43 1009.76 1009.06 1008.37 1007.73 1007.15 1005.98 1003.84
1011.07 1011.99 1012.79 1013.57 1014.26 1014.99 1015.63 1016.02 1016.22 1016.52 1016.83 1016.97 1017.01 1017.15 1017.23 1017.39 1017.44 1017.40 1017.28 1017.21 1017.05 1016.84 1016.55 1016.17 1015.80 1015.38 1015.03 1014.63 1014.16 1013.55 1013.05 1012.54 1012.04 1011.42 1010.77 1010.13 1009.51 1008.86 1008.33 1007.66 1006.97 1006.11 1004.96
1010.90 1011.91 1012.80 1013.82 1014.65 1015.31 1015.85 1016.30 1016.63 1016.87 1017.12 1017.28 1017.42 1017.36 1017.58 1017.75 1017.73 1017.64 1017.55 1017.45 1017.18 1016.98 1016.67 1016.32 1015.92 1015.48 1014.96 1014.48 1013.91 1013.32 1012.80 1012.30 1011.68 1011.06 1010.33 1009.74 1009.14 1008.48 1007.98 1007.40 1006.63 1005.74 1005.00
1010.81 1011.84 1012.91 1013.96 1014.73 1015.35 1016.02 1016.43 1016.82 1017.12 1017.38 1017.56 1017.68 1017.82 1017.99 1018.02 1017.85 1017.80 1017.63 1017.58 1017.29 1017.06 1016.82 1016.52 1016.05 1015.39 1014.82 1014.35 1013.74 1013.13 1012.61 1011.93 1011.15 1010.50 1009.91 1009.25 1008.71 1008.20 1007.67 1006.85 1006.10 1005.42 1004.51
1010.87 1011.92 1013.01 1013.85 1014.54 1015.37 1016.02 1016.52 1016.97 1017.31 1017.60 1017.78 1017.90 1018.11 1018.14 1018.06 1018.04 1017.88 1017.80 1017.66 1017.49 1017.19 1016.84 1016.43 1015.88 1015.28 1014.84 1014.31 1013.64 1012.94 1012.25 1011.51 1010.85 1010.20 1009.57 1009.04 1008.55 1007.79 1007.11 1006.51 1005.72 1004.82 1003.95
1010.77 1011.81 1012.88 1013.66 1014.48 1015.29 1015.97 1016.55 1017.07 1017.44 1017.83 1018.05 1018.16 1018.29 1018.34 1018.42 1018.25 1018.12 1017.98 1017.83 1017.58 1017.14 1016.71 1016.23 1015.71 1015.24 1014.64 1013.96 1013.20 1012.77 1011.95 1011.21 1010.48 1009.87 1009.39 1008.88 1008.28 1007.52 1006.86 1006.06 1005.24 1004.47 1003.71
1010.71 1011.70 1012.58 1013.43 1014.39 1015.29 1016.08 1016.72 1017.23 1017.65 1018.04 1018.20 1018.34 1018.63 1018.73 1018.53 1018.34 1018.21 1018.01 1017.73 1017.44 1017.02 1016.55 1016.05 1015.51 1014.90 1014.28 1013.49 1013.32 1012.70 1011.82 1010.90 1010.06 1009.43 1008.92 1008.42 1007.93 1007.37 1006.56 1005.58 1004.81 1004.23 1003.17
1010.53 1011.52 1012.43 1013.32 1014.30 1015.23 1016.01 1016.78 1017.34 1017.82 1018.13 1018.27 1018.54 1018.73 1018.63 1018.43 1018.33 1018.14 1017.93 1017.58 1017.17 1016.69 1016.24 1015.64 1015.02 1014.35 1013.75 1013.43 1013.20 1012.67 1011.61 1010.66 1009.66 1008.87 1008.37 1007.76 1007.08 1006.31 1005.80 1005.09 1004.40 1003.68 1002.77
1010.57 1011.49 1012.40 1013.43 1014.44 1015.25 1016.04 1016.70 1017.31 1017.86 1018.12 1018.41 1018.55 1018.58 1018.46 1018.38 1018.27 1018.09 1017.73 1017.21 1016.73 1016.24 1015.70 1015.14 1014.60 1013.96 1013.48 1013.14 1012.86 1012.18 1011.30 1010.19 1009.29 1008.54 1007.77 1006.95 1006.32 1005.91 1005.18 1004.22 1003.40 1003.01 1002.46
1010.97 1011.75 1012.64 1013.76 1014.67 1015.51 1016.26 1016.89 1017.44 1017.82 1018.19 1018.36 1018.44 1018.45 1018.50 1018.41 1018.20 1017.82 1017.24 1016.74 1016.30 1015.75 1015.20 1014.65 1014.17 1013.68 1013.15 1012.86 1012.37 1011.79 1010.60 1009.61 1008.79 1008.09 1007.35 1006.58 1005.93 1005.39 1004.31 1003.31 1002.94 1002.11 1001.46
1011.64 1012.23 1013.10 1014.06 1015.04 1015.74 1016.44 1017.01 1017.52 1017.97 1018.20 1018.30 1018.35 1018.51 1018.53 1018.33 1017.94 1017.39 1016.89 1016.48 1015.94 1015.45 1014.84 1014.34 1013.75 1013.19 1012.68 1012.41 1012.03 1011.24 1010.07 1008.97 1008.16 1007.59 1006.93 1006.43 1005.57 1004.60 1003.85 1003.43 1002.46 1001.50 1000.73
1012.68 1013.17 1013.88 1014.64 1015.29 1016.08 1016.69 1017.12 1017.54 1017.99 1018.25 1018.36 1018.51 1018.61 1018.53 1018.24 1017.73 1017.23 1016.82 1016.37 1015.84 1015.12 1014.58 1013.87 1013.36 1012.85 1012.22 1011.82 1011.54 1010.80 1009.69 1008.59 1007.82 1007.18 1006.52 1005.72 1004.77 1004.02 1003.53 1002.76 1001.68 1000.83 1000.10
1013.43 1014.02 1014.49 1014.93 1015.59 1016.38 1016.89 1017.22 1017.89 1018.09 1018.46 1018.62 1018.64 1018.52 1018.32 1017.98 1017.63 1017.24 1016.72 1016.24 1015.58 1014.89 1014.16 1013.48 1012.92 1012.40 1011.91 1011.29 1010.84 1010.31 1009.44 1008.55 1007.62 1006.63 1005.63 1004.81 1004.46 1003.91 1002.97 1002.29 1001.36 1000.76 999.73
1014.00 1014.39 1014.81 1015.38 1016.13 1016.69 1017.09 1017.58 1017.94 1018.36 1018.59 1018.58 1018.47 1018.25 1018.02 1017.82 1017.53 1017.08 1016.49 1015.92 1015.18 1014.40 1013.56 1012.89 1012.34 1011.90 1011.33 1010.87 1010.33 1009.77 1009.09 1008.40 1007.42 1006.21 1005.12 1004.82 1004.04 1003.34 1002.61 1001.74 1001.14 1000.25 999.45
1014.16 1014.63 1015.04 1015.73 1016.44 1016.97 1017.42 1017.77 1018.12 1018.50 1018.52 1018.42 1018.21 1017.97 1017.79 1017.52 1017.08 1016.61 1016.09 1015.49 1014.79 1014.06 1013.31 1012.67 1011.95 1011.36 1010.98 1010.32 1009.78 1009.17 1008.46 1007.66 1006.65 1005.85 1005.34 1004.27 1003.63 1003.07 1002.15 1001.54 1000.71 1000.02 999.30
1014.29 1014.87 1015.36 1015.84 1016.55 1017.27 1017.74 1018.03 1018.35 1018.56 1018.46 1018.22 1018.03 1017.87 1017.56 1017.17 1016.81 1016.39 1015.84 1015.26 1014.62 1013.98 1013.32 1012.56 1011.88 1011.33 1010.59 1009.90 1009.42 1008.77 1007.86 1007.00 1006.18 1005.68 1004.69 1004.02 1003.42 1002.84 1002.05 1001.13 1000.47 999.83 999.07
1014.48 1014.95 1015.43 1016.01 1016.64 1017.34 1017.83 1018.23 1018.37 1018.39 1018.22 1018.14 1017.95 1017.59 1017.24 1016.82 1016.37 1015.91 1015.50 1015.11 1014.72 1014.33 1013.65 1012.94 1012.31 1011.35 1010.49 1009.86 1009.27 1008.50 1007.50 1006.69 1006.00 1005.03 1004.39 1003.61 1003.13 1002.42 1001.67 1000.91 1000.16 999.40 998.60
1014.59 1015.18 1015.70 1016.24 1016.96 1017.48 1017.73 1017.90 1018.13 1018.31 1018.34 1018.05 1017.64 1017.40 1017.06 1016.46 1016.00 1015.40 1014.80 1014.57 1014.24 1013.91 1013.46 1012.92 1012.36 1011.47 1010.69 1009.82 1008.96 1008.31 1007.42 1006.60 1005.76 1005.12 1004.36 1003.80 1003.22 1002.37 1001.49 1000.66 999.81 999.16 998.29
Thickness
5694 5695 5698 5702 5703 5704 5705 5705 5702 5702 5702 5700 5695 5688 5679 5674 5667 5661 5657 5653 5651 5649 5647 5645 5644 5642 5641 5638 5637 5636 5636 5639 5638 5638 5644 5647 5653 5656 5652 5648 5646 5647 5648
5689 5688 5690 5692 5692 5693 5694 5693 5691 5691 5689 5685 5681 5675 5669 5662 5656 5650 5645 5643 5639 5636 5634 5632 5630 5628 5627 5625 5623 5623 5623 5624 5621 5620 5622 5634 5640 5641 5631 5627 5632 5632 5632
5684 5683 5682 5681 5681 5680 5679 5682 5681 5677 5675 5673 5666 5659 5655 5651 5647 5640 5636 5630 5627 5624 5621 5619 5618 5617 5615 5613 5611 5609 5607 5607 5607 5602 5597 5607 5609 5611 5610 5614 5615 5615 5611
5680 5676 5674 5672 5670 5668 5669 5671 5668 5665 5662 5660 5656 5650 5645 5637 5631 5628 5623 5619 5614 5611 5608 5607 5605 5603 5602 5599 5596 5593 5589 5586 5585 5583 5582 5578 5574 5575 5592 5589 5582 5584 5581
5675 5668 5665 5661 5660 5659 5659 5659 5657 5654 5650 5645 5643 5639 5633 5625 5619 5615 5613 5609 5605 5600 5597 5595 5593 5590 5586 5582 5578 5574 5571 5567 5563 5561 5557 5555 5555 5552 5551 5574 5560 5555 5547
5667 5661 5657 5655 5652 5650 5650 5649 5646 5641 5637 5634 5630 5625 5620 5615 5610 5605 5603 5599 5595 5590 5585 5582 5580 5575 5570 5565 5561 5557 5553 5549 5543 5538 5535 5531 5526 5523 5520 5528 5537 5534 5536
5659 5654 5652 5650 5647 5644 5641 5639 5634 5630 5625 5621 5617 5612 5606 5601 5597 5595 5592 5588 5585 5579 5573 5569 5565 5559 5554 5549 5545 5541 5536 5531 5523 5517 5514 5507 5500 5494 5487 5486 5500 5500 5507
5656 5650 5648 5644 5639 5635 5632 5629 5624 5620 5615 5609 5605 5601 5595 5591 5587 5583 5579 5575 5570 5565 5558 5554 5549 5545 5540 5536 5530 5524 5518 5512 5505 5497 5489 5483 5474 5466 5457 5449 5442 5449 5459
5650 5645 5641 5638 5632 5627 5622 5618 5614 5608 5602 5599 5594 5590 5585 5581 5576 5571 5566 5561 5555 5549 5545 5540 5536 5530 5524 5517 5511 5507 5500 5491 5483 5474 5467 5458 5451 5442 5432 5421 5410 5397 5401
5645 5639 5634 5628 5623 5617 5611 5606 5603 5597 5591 5587 5583 5578 5574 5568 5563 5557 5552 5546 5541 5535 5529 5524 5519 5514 5507 5501 5495 5489 5481 5471 5461 5454 5447 5438 5428 5419 5406 5395 5386 5378 5364
5640 5632 5627 5620 5613 5607 5601 5596 5591 5586 5581 5576 5571 5568 5562 5555 5549 5544 5538 5531 5526 5519 5514 5508 5502 5496 5491 5485 5478 5471 5462 5453 5446 5436 5426 5415 5403 5393 5381 5371 5363 5356 5345
5634 5627 5620 5612 5605 5599 5592 5587 5581 5576 5570 5566 5560 5554 5548 5541 5537 5530 5524 5517 5511 5504 5497 5491 5485 5480 5474 5465 5459 5453 5445 5436 5428 5417 5404 5391 5380 5370 5359 5352 5344 5334 5329
5628 5622 5613 5607 5601 5592 5585 5579 5572 5566 5560 5554 5549 5542 5536 5530 5523 5517 5510 5503 5495 5489 5482 5476 5469 5462 5453 5448 5443 5435 5427 5417 5406 5394 5380 5368 5357 5351 5342 5331 5323 5317 5314
5624 5617 5609 5603 5595 5587 5578 5571 5564 5556 5549 5542 5536 5529 5523 5515 5509 5502 5495 5487 5480 5474 5467 5460 5452 5444 5438 5432 5426 5414 5408 5398 5385 5371 5359 5347 5338 5330 5321 5315 5307 5301 5298
5619 5612 5606 5599 5590 5579 5570 5562 5554 5546 5538 5531 5525 5516 5508 5502 5496 5488 5481 5473 5466 5459 5452 5445 5437 5429 5422 5415 5402 5394 5386 5376 5367 5356 5344 5333 5322 5311 5303 5297 5292 5284 5284
5615 5608 5601 5593 5583 5572 5562 5552 5544 5535 5527 5521 5512 5503 5497 5490 5482 5475 5467 5460 5453 5446 5438 5431 5424 5417 5408 5396 5384 5371 5365 5357 5349 5341 5332 5321 5310 5302 5293 5285 5278 5274 5268
5610 5602 5594 5585 5573 5564 5554 5545 5535 5525 5517 5509 5501 5492 5485 5477 5469 5461 5454 5449 5442 5434 5427 5419 5410 5401 5392 5380 5367 5357 5348 5341 5331 5324 5317 5309 5297 5286 5280 5278 5274 5267 5260
5601 5594 5586 5573 5562 5553 5543 5533 5524 5516 5506 5498 5490 5481 5471 5463 5455 5449 5444 5438 5430 5423 5416 5407 5397 5388 5376 5362 5351 5341 5336 5329 5321 5311 5302 5290 5282 5273 5270 5270 5263 5262 5257
5589 5584 5574 5562 5551 5542 5532 5524 5514 5504 5495 5486 5476 5466 5457 5449 5443 5439 5432 5425 5419 5410 5402 5392 5384 5373 5361 5346 5334 5327 5325 5319 5312 5300 5287 5275 5269 5264 5258 5250 5251 5254 5253
5569 5565 5558 5549 5542 5531 5521 5513 5503 5492 5481 5472 5462 5451 5443 5436 5431 5425 5418 5411 5404 5397 5386 5377 5367 5356 5346 5334 5323 5314 5309 5306 5300 5290 5276 5268 5261 5254 5247 5244 5244 5244 5245
5556 5550 5545 5539 5530 5518 5509 5501 5487 5478 5466 5455 5445 5438 5431 5424 5417 5410 5403 5396 5389 5381 5373 5362 5351 5341 5331 5323 5313 5303 5296 5289 5287 5279 5273 5264 5252 5245 5242 5236 5234 5232 5236
5543 5540 5534 5525 5515 5506 5497 5485 5474 5461 5449 5440 5432 5425 5418 5411 5404 5397 5389 5380 5373 5367 5359 5350 5340 5329 5320 5310 5302 5294 5286 5276 5268 5265 5264 5251 5247 5241 5235 5231 5227 5228 5229
5534 5528 5523 5512 5502 5491 5480 5470 5458 5444 5435 5428 5422 5415 5407 5399 5391 5383 5374 5367 5358 5349 5341 5334 5327 5319 5309 5302 5294 5286 5279 5272 5263 5255 5246 5244 5238 5230 5228 5223 5224 5223 5223
5525 5517 5509 5501 5488 5474 5463 5452 5440 5430 5423 5418 5411 5403 5395 5387 5378 5369 5359 5348 5338 5330 5322 5316 5311 5304 5298 5292 5283 5276 5272 5264 5255 5246 5243 5236 5229 5222 5219 5221 5219 5220 5222
5513 5505 5497 5486 5474 5460 5447 5435 5427 5420 5415 5407 5400 5392 5383 5375 5366 5355 5343 5331 5318 5306 5300 5295 5289 5287 5284 5278 5270 5262 5259 5252 5244 5242 5237 5232 5225 5220 5217 5217 5219 5221 5224
5500 5489 5479 5469 5456 5444 5435 5426 5418 5410 5401 5394 5388 5378 5369 5361 5351 5341 5333 5318 5308 5297 5285 5278 5273 5272 5266 5262 5257 5250 5245 5240 5236 5233 5228 5222 5216 5215 5216 5218 5222 5223 5226